Location: Unspecified
(43.4354°N, 0.0000°E)
Time: 09:54:13
(UTC+00:00)

Tiros 1 despin weight - Pass Details

Date: 27 June 2019
Orbit: 594 x 642 km, 48.2° (Epoch: 24 August)

Event Time Altitude Azimuth Distance (km) Brightness Sun altitude
Rises 21:59:06 0° 252° (WSW) 2,865 ? -17.4°
Reaches altitude 10° 22:01:25 10° 254° (WSW) 1,955 ? -17.6°
Maximum altitude 22:05:54 72° 340° (NNW) 635 ? -18.0°
Drops below altitude 10° 22:10:20 10° 65° (ENE) 1,937 ? -18.4°
Sets 22:12:37 0° 67° (ENE) 2,837 ? -18.6°
